Regional Weather Roundup
Issued by NWS San Angelo, TX

Home | Current Version | Previous Version | Text Only | Print | Product List | Glossary On
Versions: 1 2 3 4 5 6 7 8 9 10 11 12 13 14 15 16 17 18 19 20 21 22 23 24 25 26 27 28 29 30 31 32 33 34 35 36 37 38 39 40 41 42 43 44 45 46 47 48 49 50
407
ASUS44 KSJT 191710
RWRSJT
WEST CENTRAL TEXAS REGIONAL WEATHER ROUNDUP
NATIONAL WEATHER SERVICE SAN ANGELO TX
1100 AM CST SUN FEB 19 2017

NOTE: "FAIR" INDICATES FEW OR NO CLOUDS BELOW 12,000 FEET WITH NO
SIGNIFICANT WEATHER AND/OR OBSTRUCTIONS TO VISIBILITY.

TXZ049-054-064>066-071>073-076>078-098-099-113-114-127-128-139-140-
154-155-168>170-191800
...LOCATIONS ACROSS WEST CENTRAL TEXAS...

CITY           SKY/WX    TMP DP  RH WIND       PRES   REMARKS
SAN ANGELO     CLOUDY    69  60  73 S8        29.86S
ABILENE        PTSUNNY   68  61  78 S18G29    29.87R
DYESS AFB      PTSUNNY   69  61  75 SW17      29.86R
JUNCTION       CLOUDY    71  63  75 S16G24    29.85S
SWEETWATER     CLOUDY    64  60  86 SE13      29.90F
BROWNWOOD      CLOUDY    70  63  78 S13G20    29.89R HAZE
COLEMAN        CLOUDY    67  62  84 SE9       29.87F HAZE
SONORA         PTSUNNY   68  63  83 S3        29.92R
OZONA          NOT AVBL
BRADY          NOT AVBL
$$

TEXAS PANHANDLE/OKLAHOMA PANHANDLE

CITY           SKY/WX    TMP DP  RH WIND       PRES   REMARKS
AMARILLO       PTSUNNY   53  50  89 SE16      29.85R
BORGER         SUNNY     61  51  70 S17G28    29.83F
CANADIAN       MOSUNNY   58  52  81 S10       29.88S
DALHART        MOSUNNY   57  44  62 S18       29.82F
DUMAS          MOSUNNY   57  46  65 S18       29.82S
GUYMON         NOT AVBL
HEREFORD       PTSUNNY   55  46  69 S13G18    29.86R
PAMPA          MOSUNNY   60  52  76 S18       29.86S
PERRYTON       MOSUNNY   62  51  67 S17       29.83F
$$

SOUTHERN PANHANDLE/SOUTH PLAINS/ROLLING PLAINS

CITY           SKY/WX    TMP DP  RH WIND       PRES   REMARKS
LUBBOCK        PTSUNNY   62  47  57 S10       29.84F
SNYDER         CLOUDY    64  57  78 S14G20    29.88R
CHILDRESS      MOSUNNY   56  50  80 SE9       29.89F
SEMINOLE       PTSUNNY   63  35  35 SW7       29.87F
$$

PERMIAN BASIN

CITY           SKY/WX    TMP DP  RH WIND       PRES   REMARKS
MIDLAND        MOSUNNY   67  37  33 NW7       29.87R
ODESSA         MOSUNNY   67  36  31 W5        29.87F
WINK           CLOUDY    65  32  29 SW9       29.86S
$$

FAR WEST/SOUTHWEST MOUNTAINS/TRANS PECOS

CITY           SKY/WX    TMP DP  RH WIND       PRES   REMARKS
ALPINE         CLOUDY    58  34  39 SW16G30   29.99S
DRYDEN           N/A     68  42  38 N10       29.86S
EL PASO        MOSUNNY   52  30  43 W13       29.93R
FORT STOCKTON  CLOUDY    60  32  34 SE6       29.91R
GUADALUPE PASS MOSUNNY   49  33  54 W29G37    29.91R
MARFA          CLOUDY    53  38  56 S10       29.97S
PECOS          CLOUDY    63  32  31 S10       29.88R
$$

DALLAS/FORT WORTH METROPLEX

CITY           SKY/WX    TMP DP  RH WIND       PRES   REMARKS
DFW AIRPORT    CLOUDY    69  66  90 SE13      29.91S FOG
FTW MEACHAM    CLOUDY    69  64  84 SE13      29.91R HAZE
DAL-EXECUTIVE  CLOUDY    68  66  93 SE8       29.92S FOG
GRAND PRAIRIE  CLOUDY    70  68  94 E12       29.93S FOG
ADDISON        CLOUDY    66  64  94 SE12G18   29.94R FOG
MESQUITE       CLOUDY    70  64  83 SE12      29.94S FOG
LANCASTER      CLOUDY    68  65  89 SE12      29.93F FOG
$$

NORTH CENTRAL TEXAS

CITY           SKY/WX    TMP DP  RH WIND       PRES   REMARKS
SHRMAN/DENISON CLOUDY    65  63  92 SE10      29.96S FOG
GAINESVILLE    FOG       63  62  96 SE8       29.95S VSB 3/4
BRIDGEPORT     CLOUDY    66  63  90 SE8       29.93S FOG
DENTON         CLOUDY    65  65 100 SE10      29.93R FOG
WAXAHACHIE     CLOUDY    69  68  98 SE13      29.93F FOG
GRANBURY       CLOUDY    69  65  86 SE14      29.90F HAZE
$$

WESTERN NORTH TEXAS

CITY           SKY/WX    TMP DP  RH WIND       PRES   REMARKS
WICHITA FALLS  SUNNY     73  59  61 S21G29    29.87F
VERNON         CLOUDY    59  56  88 SW3       29.91R
BRECKENRIDGE   CLOUDY    72  61  67 S20       29.87S HAZE
COMANCHE       CLOUDY    71  65  80 SE17G23   29.88F
$$

CENTRAL AND SOUTH CENTRAL TEXAS

CITY           SKY/WX    TMP DP  RH WIND       PRES   REMARKS
AUSTIN/BERGSTM CLOUDY    77  67  71 SE18      29.87S
WACO           CLOUDY    72  67  84 SE15      29.90S HAZE
HILLSBORO      CLOUDY    71  67  89 SE14      29.91S FOG
TEMPLE         CLOUDY    73  68  83 SE18      29.89S
KILLEEN-GRAY   CLOUDY    72  66  83 SE16      29.87F HAZE
FORT HOOD      CLOUDY    70  66  87 SE13      29.86S FOG
GEORGETOWN     PTSUNNY   72  64  78 SE10G18   29.88S
LAGO VISTA     CLOUDY    75  67  77 SE10G18   29.89F
SAN MARCOS     PTSUNNY   77  68  73 SE17      29.89S FOG
NEW BRAUNFELS  CLOUDY    78  67  68 SE20G26   29.86S HAZE
RANDOLPH AFB   PTSUNNY   77  68  73 SE18      29.85F
SAN ANTONIO    CLOUDY    75  66  73 SE16      29.86F
STINSON        CLOUDY    78  67  68 SE15      29.83F
PLEASANTON     NOT AVBL
LA GRANGE      CLOUDY    77  70  79 SE10      29.88S
GIDDINGS       CLOUDY   N/A N/A N/A SE16      29.91S
$$

EAST TEXAS

CITY           SKY/WX    TMP DP  RH WIND       PRES   REMARKS
PARIS          CLOUDY    63  59  88 E10       30.00S
CLARKSVILLE    NOT AVBL
TYLER          CLOUDY    72  64  76 S13       29.97R
LONGVIEW       MOSUNNY   74  65  73 SE12      29.97S HAZE
PALESTINE      CLOUDY    71  67  87 SE8       29.97S FOG
NACOGDOCHES    CLOUDY    70  63  78 SE14      29.98F
$$

TEXAS HILL COUNTRY AND EDWARDS PLATEAU

CITY           SKY/WX    TMP DP  RH WIND       PRES   REMARKS
LLANO          PTSUNNY   72  66  83 SE5       29.89F
HORSESHOE BAY  CLOUDY    75  65  70 SE16G23   29.86F
KERRVILLE      CLOUDY    72  67  85 SE12      29.88R
FREDERICKSBRG  CLOUDY    71  62  73 S16G25    29.88R
ROCKSPRINGS    PTSUNNY   70  63  78 S15G21    29.89S HAZE
HONDO          LGT RAIN  73  68  84 SE10      29.85F
UVALDE         CLOUDY    74  66  77 SE12      29.85R HAZE
DEL RIO        PTSUNNY   74  65  73 SE12      29.82R HAZE
$$

SOUTHEAST TEXAS

CITY           SKY/WX    TMP DP  RH WIND       PRES   REMARKS
COLLEGE STN    PTSUNNY   76  68  76 SE22G29   29.91S
CALDWELL       NOT AVBL
CROCKETT       CLOUDY    68  66  94 SE5       30.00S FOG
BRENHAM        CLOUDY    77  69  76 SE16      29.92S
HUNTSVILLE     CLOUDY    72  67  84 SE8       29.96S HAZE
CONROE         CLOUDY    70  68  93 SE9       29.97S FOG
HOUSTON BUSH   CLOUDY    71  68  90 SE17      29.97S FOG
HOUSTON HOBBY  CLOUDY    69  68  96 E8        29.97S FOG
PERLAND        CLOUDY    73  69  87 SE9       29.98F FOG
WHARTON        PTSUNNY   77  67  70 SE15G22   29.92F
$$

THE UPPER TEXAS COAST

CITY           SKY/WX    TMP DP  RH WIND       PRES   REMARKS
ORANGE         CLOUDY    72  69  89 SE9       30.03F
PORT ARTHUR    CLOUDY    73  67  81 E12       30.00S
GALVESTON      CLOUDY    72  68  87 E15       29.98S FOG
ANGLETON       CLOUDY    76  70  82 SE15      29.96S
BAY CITY       CLOUDY    76  71  85 SE13      29.93F
$$

TEXAS COASTAL BEND, RIO GRANDE PLAINS DEEP SOUTH TEXAS

CITY           SKY/WX    TMP DP  RH WIND       PRES   REMARKS
VICTORIA       CLOUDY    76  69  79 SE23G31   29.88F
BEEVILLE       CLOUDY    78  72  82 SE17G29   29.84S
ROCKPORT       CLOUDY    75  69  81 SE20      29.86F
PORT ARANSAS   CLOUDY    72  70  94 SE12      29.86S FOG
PORT LAVACA    MOSUNNY   75  71  88 SE23G30   29.89F
CORPUS CHRISTI CLOUDY    79  71  76 SE25G37   29.84S
KINGSVILLE NAS CLOUDY    78  72  81 SE24G32   29.84R
COTULLA        CLOUDY    77  66  68 SE10      29.83R
LAREDO         CLOUDY    78  66  66 SE13      29.81R
BROWNSVILLE    PTSUNNY   83  71  67 S28G33    29.85R
PORT ISABEL    PTSUNNY   80  71  74 S23G29    29.85R
HEBBRONVILLE   CLOUDY    75  65  71 S12       29.83R
MCALLEN        CLOUDY    83  69  62 S18G25    29.81F
WESLACO        CLOUDY    83  69  62 S20G26    29.81S
FALFURRIAS     CLOUDY    80  68  66 SE14G22   29.82S
EDINBURG       CLOUDY    84  68  58 SE16G25   29.82S
$$




USA.gov is the U.S. government's official web portal to all federal, state and local government web resources and services.